Date String (YYYY-MM-DD hh:mm:ss) UTC,Instrument flags,Ambient pressure (hPa),Sample flow (lpm),Bypass flow (lpm),Sample temperature (°C),Ambient temperature (°C),ASC tube jacket temperature (°C),LED temperature (°C),Box temperature (°C),Sample RH (%),Span deviation,Mass concentration (μg/m³),Mass concentration (μg/m³),Mass concentration (μg/m³)
DateTimeUTC,F1_M11,P_M11,Q1_M11,Q2_M11,T1_M11,T2_M11,T3_M11,T4_M11,T5_M11,U1_M11,ZSPAN_M11,X2_M11,X0_M11,X1_M11
2022-06-06 03:00:00,,0821.0,5.01,0.00,29.3,27.2,00.0,38.2,31.1,23.6,0000.0,0004.01,0010.83,0002.37
2022-06-06 03:01:00,,0820.9,4.99,0.00,29.3,27.3,00.0,38.2,31.0,24.3,0000.0,0003.99,0010.63,0002.39
2022-06-06 03:02:00,,0820.9,4.99,0.00,29.3,27.4,00.0,38.2,31.1,25.2,0000.0,0003.95,0011.05,0002.38
2022-06-06 03:03:00,,0820.9,5.02,0.00,29.3,27.5,00.0,38.2,31.1,24.7,0000.0,0004.05,0011.14,0002.41
2022-06-06 03:04:00,,0820.9,5.00,0.00,29.3,27.7,00.0,38.2,31.1,24.9,0000.0,0004.09,0010.88,0002.40
2022-06-06 03:05:00,,0820.9,4.99,0.00,29.3,27.8,00.0,38.2,31.1,24.3,0000.0,0004.07,0010.77,0002.40
2022-06-06 03:06:00,,0821.0,5.00,0.00,29.3,27.9,00.0,38.2,31.2,24.1,0000.0,0004.03,0010.41,0002.39
2022-06-06 03:07:00,,0821.0,5.00,0.00,29.3,28.0,00.0,38.2,31.2,24.1,0000.0,0004.05,0010.59,0002.40
2022-06-06 03:08:00,,0821.0,5.00,0.00,29.3,28.1,00.0,38.2,31.2,24.1,0000.0,0004.04,0010.43,0002.39
2022-06-06 03:09:00,,0821.0,4.99,0.00,29.3,28.2,00.0,38.2,31.2,24.5,0000.0,0004.01,0010.28,0002.38
2022-06-06 03:10:00,,0820.9,5.00,0.00,29.3,28.3,00.0,38.2,31.3,24.5,0000.0,0004.00,0010.09,0002.37
2022-06-06 03:11:00,,0821.0,5.00,0.00,29.4,28.3,00.0,38.2,31.3,24.5,0000.0,0004.02,0010.07,0002.38
2022-06-06 03:12:00,,0821.0,5.00,0.00,29.4,28.4,00.0,38.2,31.3,24.6,0000.0,0004.04,0010.21,0002.39
2022-06-06 03:13:00,,0821.1,4.99,0.00,29.4,28.4,00.0,38.2,31.4,24.5,0000.0,0004.07,0010.03,0002.40
2022-06-06 03:14:00,,0821.2,5.00,0.00,29.4,28.5,00.0,38.2,31.4,24.4,0000.0,0004.07,0010.00,0002.41
2022-06-06 03:15:00,,0821.3,5.01,0.00,29.5,28.5,00.0,38.3,31.4,24.1,0000.0,0004.04,0010.02,0002.43
2022-06-06 03:16:00,,0821.4,5.00,0.00,29.5,28.6,00.0,38.3,31.4,24.2,0000.0,0004.01,0010.00,0002.44
2022-06-06 03:17:00,,0821.5,5.00,0.00,29.5,28.6,00.0,38.3,31.5,24.1,0000.0,0004.05,0010.00,0002.47
2022-06-06 03:18:00,,0821.7,5.00,0.00,29.5,28.7,00.0,38.3,31.5,25.0,0000.0,0004.05,0009.99,0002.49
2022-06-06 03:19:00,,0821.7,4.99,0.00,29.6,28.7,00.0,38.3,31.5,25.5,0000.0,0004.09,0010.08,0002.53
2022-06-06 03:20:00,,0821.8,4.99,0.00,29.6,28.7,00.0,38.4,31.5,25.7,0000.0,0004.13,0010.26,0002.58
2022-06-06 03:21:00,,0821.8,5.01,0.00,29.6,28.7,00.0,38.4,31.6,26.5,0000.0,0004.20,0010.54,0002.63
2022-06-06 03:22:00,,0821.9,5.00,0.00,29.6,28.6,00.0,38.4,31.5,27.0,0000.0,0004.25,0010.75,0002.64
2022-06-06 03:23:00,,0821.8,5.00,0.00,29.6,27.7,00.0,38.3,31.3,27.4,0000.0,0004.24,0010.32,0002.66
2022-06-06 03:24:00,,0821.8,5.00,0.00,29.5,27.2,00.0,38.3,31.2,27.5,0000.0,0004.26,0009.94,0002.70
2022-06-06 03:25:00,,0821.8,4.99,0.00,29.4,27.1,00.0,38.2,31.1,27.2,0000.0,0004.24,0009.92,0002.70
2022-06-06 03:26:00,,0821.8,5.01,0.00,29.3,27.2,00.0,38.2,31.0,27.7,0000.0,0004.20,0009.73,0002.69
2022-06-06 03:27:00,,0821.6,4.99,0.00,29.3,27.3,00.0,38.2,31.0,27.8,0000.0,0004.22,0010.32,0002.69
2022-06-06 03:28:00,,0821.7,5.00,0.00,29.3,27.4,00.0,38.2,31.1,27.4,0000.0,0004.21,0010.32,0002.69
2022-06-06 03:29:00,,0821.6,5.01,0.00,29.3,27.6,00.0,38.2,31.1,27.0,0000.0,0004.21,0010.26,0002.69
2022-06-06 03:30:00,,0821.5,4.99,0.00,29.3,27.7,00.0,38.2,31.1,27.0,0000.0,0004.15,0010.13,0002.67
2022-06-06 03:31:00,,0821.5,5.00,0.00,29.3,27.8,00.0,38.2,31.2,26.7,0000.0,0004.13,0010.29,0002.64
2022-06-06 03:32:00,,0821.5,5.00,0.00,29.3,27.9,00.0,38.2,31.2,25.7,0000.0,0004.07,0010.26,0002.63
2022-06-06 03:33:00,,0821.4,5.00,0.00,29.3,28.0,00.0,38.2,31.2,25.0,0000.0,0004.03,0010.31,0002.62
2022-06-06 03:34:00,,0821.4,5.00,0.00,29.3,28.1,00.0,38.2,31.2,25.0,0000.0,0004.01,0010.42,0002.61
2022-06-06 03:35:00,,0821.4,5.00,0.00,29.3,28.2,00.0,38.2,31.3,24.5,0000.0,0004.00,0010.35,0002.57
2022-06-06 03:36:00,,0821.4,5.00,0.00,29.4,28.3,00.0,38.2,31.3,24.4,0000.0,0003.94,0010.17,0002.52
2022-06-06 03:37:00,,0821.4,5.00,0.00,29.4,28.4,00.0,38.2,31.3,24.6,0000.0,0003.94,0010.24,0002.50
2022-06-06 03:38:00,,0821.5,5.00,0.00,29.4,28.4,00.0,38.2,31.4,24.9,0000.0,0003.90,0009.54,0002.47
2022-06-06 03:39:00,,0821.5,5.00,0.00,29.4,28.5,00.0,38.3,31.4,25.0,0000.0,0003.89,0009.47,0002.45
2022-06-06 03:40:00,,0821.6,5.00,0.00,29.5,28.5,00.0,38.3,31.4,24.9,0000.0,0003.87,0009.49,0002.42
2022-06-06 03:41:00,,0821.6,4.99,0.00,29.5,28.6,00.0,38.3,31.4,25.1,0000.0,0003.90,0009.60,0002.39
2022-06-06 03:42:00,,0821.7,5.01,0.00,29.5,28.6,00.0,38.3,31.5,25.8,0000.0,0003.90,0009.40,0002.37
2022-06-06 03:43:00,,0821.8,5.01,0.00,29.5,28.7,00.0,38.3,31.5,25.8,0000.0,0003.86,0009.32,0002.34
2022-06-06 03:44:00,,0821.8,5.00,0.00,29.6,28.7,00.0,38.4,31.5,26.3,0000.0,0003.83,0009.17,0002.33
2022-06-06 03:45:00,,0821.9,5.00,0.00,29.6,28.8,00.0,38.4,31.6,27.3,0000.0,0003.78,0008.97,0002.31
2022-06-06 03:46:00,,0822.0,5.00,0.00,29.6,28.8,00.0,38.4,31.6,28.3,0000.0,0003.76,0009.41,0002.29
2022-06-06 03:47:00,,0822.1,4.99,0.00,29.7,28.8,00.0,38.4,31.6,28.0,0000.0,0003.78,0009.63,0002.29
2022-06-06 03:48:00,,0822.1,5.01,0.00,29.7,28.8,00.0,38.4,31.6,27.4,0000.0,0003.77,0009.79,0002.30
2022-06-06 03:49:00,,0822.2,5.00,0.00,29.7,28.8,00.0,38.4,31.6,26.5,0000.0,0003.79,0009.88,0002.31
2022-06-06 03:50:00,,0822.2,4.99,0.00,29.7,28.0,00.0,38.4,31.4,26.6,0000.0,0003.80,0010.00,0002.30
2022-06-06 03:51:00,,0822.3,5.01,0.00,29.6,27.4,00.0,38.3,31.3,26.4,0000.0,0003.83,0010.07,0002.29
2022-06-06 03:52:00,,0822.3,5.00,0.00,29.5,27.2,00.0,38.3,31.2,26.2,0000.0,0003.80,0009.97,0002.28
2022-06-06 03:53:00,,0822.4,4.99,0.00,29.4,27.2,00.0,38.3,31.1,26.2,0000.0,0003.79,0010.07,0002.25
2022-06-06 03:54:00,,0822.4,5.02,0.00,29.4,27.3,00.0,38.3,31.1,26.3,0000.0,0003.80,0010.39,0002.24
2022-06-06 03:55:00,,0822.3,4.99,0.00,29.4,27.4,00.0,38.3,31.1,26.5,0000.0,0003.79,0010.18,0002.21
2022-06-06 03:56:00,,0822.3,5.00,0.00,29.3,27.6,00.0,38.3,31.1,26.5,0000.0,0003.80,0010.23,0002.19
2022-06-06 03:57:00,,0822.1,5.01,0.00,29.3,27.7,00.0,38.3,31.2,26.5,0000.0,0003.80,0009.94,0002.16
2022-06-06 03:58:00,,0822.0,5.01,0.00,29.4,27.8,00.0,38.3,31.2,26.6,0000.0,0003.74,0010.20,0002.12
2022-06-06 03:59:00,,0821.9,4.99,0.00,29.4,28.0,00.0,38.3,31.2,26.7,0000.0,0003.75,0010.00,0002.09
